Wind_Speed
13 14 15 15 16 16 17 17 18 16 15 14 16 18 22 24 26 27 27 30 29 30 27 23 18 17 13 9 8 6 3 4 7 13 11 13 13 14 12 12 10 9 5 11 17
14 14 15 15 16 16 17 17 16 17 15 15 14 14 17 21 24 26 19 26 32 33 30 23 22 17 14 10 12 11 9 7 9 10 13 12 11 11 11 9 8 9 11 14 14
16 16 15 16 17 16 17 17 17 15 16 16 17 15 14 16 18 17 18 21 30 35 32 27 24 19 17 14 17 19 16 12 11 4 13 12 14 10 11 9 5 5 9 12 14
17 16 16 16 17 18 17 18 18 16 15 17 17 17 15 13 6 7 17 24 28 35 35 32 27 22 20 17 17 21 14 14 12 11 16 14 11 10 9 6 5 6 8 10 12
18 17 17 17 17 17 18 18 19 18 16 16 18 18 17 15 7 17 18 25 28 36 38 34 29 26 21 18 16 19 19 18 14 12 15 18 11 9 8 7 10 8 9 10 10
19 18 17 17 18 18 17 19 19 18 19 17 17 19 18 14 12 16 14 24 28 32 39 35 34 29 19 16 15 19 21 13 15 16 17 21 16 14 13 11 12 9 6 9 9
18 19 20 19 19 18 17 18 20 19 19 21 19 19 18 8 16 13 18 22 28 32 39 39 34 27 25 14 11 12 11 15 20 20 22 23 18 17 15 14 13 12 10 9 10
23 20 20 20 20 20 19 19 19 20 20 22 23 21 21 12 15 12 19 21 29 33 41 33 29 26 25 19 11 14 13 20 24 23 22 22 17 13 17 19 19 15 14 12 11
25 25 23 21 20 19 20 21 21 20 20 21 24 24 17 11 13 17 21 21 29 34 37 31 32 28 28 18 12 23 21 27 30 28 26 28 17 13 11 17 20 19 16 15 15
24 25 25 25 22 20 20 21 22 22 21 22 23 19 11 13 12 18 24 25 26 32 34 32 34 34 30 25 19 25 26 33 34 33 31 28 19 9 7 9 22 22 21 19 18
23 23 23 24 23 22 21 23 23 25 24 20 25 28 22 15 18 20 24 25 27 29 33 35 38 42 36 26 17 26 31 39 36 25 33 28 23 15 8 7 11 25 25 23 20
23 23 22 23 21 21 23 24 24 29 31 23 25 31 26 22 27 23 25 26 26 30 31 36 44 40 32 26 20 22 33 40 32 28 26 31 25 17 16 8 5 8 17 19 19
23 23 21 21 21 20 22 23 22 26 32 27 14 9 11 23 33 29 29 31 27 26 33 37 40 38 31 28 22 23 37 34 33 33 22 25 24 26 22 16 14 14 14 15 17
22 23 21 19 20 19 20 20 20 18 21 19 9 9 15 14 32 31 31 31 30 25 27 31 35 35 34 30 27 24 31 33 18 18 28 29 12 31 28 25 24 21 23 20 19
23 24 20 20 18 18 19 17 14 10 6 9 5 14 16 12 14 32 32 30 33 29 28 25 36 32 31 36 31 27 28 28 20 17 17 21 14 30 31 33 30 28 26 23 22
22 25 21 21 18 16 16 17 11 6 9 5 9 8 14 8 17 8 33 32 30 28 27 26 16 36 35 35 33 32 19 15 11 11 9 25 30 31 35 35 28 28 28 26 24
22 23 22 20 17 14 15 15 10 11 6 4 4 1 12 15 8 15 23 34 30 25 33 26 29 26 25 34 31 33 26 3 1 4 6 14 23 32 28 29 29 22 15 20 24
22 23 22 21 21 16 19 19 17 10 23 14 10 9 19 13 7 23 16 31 32 29 20 26 21 35 27 29 35 39 36 15 6 5 6 12 16 33 18 28 19 20 16 18 19
23 22 22 24 24 20 23 29 19 27 16 15 20 19 10 6 7 25 28 22 30 33 30 22 25 25 37 33 32 32 31 27 26 14 4 9 21 30 28 22 25 32 28 24 22
26 20 24 24 25 24 29 38 25 25 21 20 12 8 6 10 10 6 6 21 30 29 34 32 11 31 27 36 38 34 32 19 14 5 5 7 12 28 23 22 23 26 24 27 28
27 21 22 21 25 28 36 35 33 30 25 24 26 18 17 17 15 14 9 13 16 19 31 42 37 23 24 41 46 41 32 28 16 14 7 4 9 19 14 13 16 24 14 23 24
26 20 19 21 22 29 34 33 32 32 25 31 25 23 25 24 19 15 20 16 14 12 14 24 39 40 37 19 42 43 39 37 29 15 10 16 24 8 17 24 20 13 15 18 22
25 21 25 25 26 26 28 29 33 31 29 27 28 24 20 16 13 17 23 21 19 14 16 23 29 34 36 41 38 32 40 38 37 33 30 16 21 24 21 20 17 16 19 18 21
24 15 15 19 23 24 28 32 30 24 22 21 25 24 24 26 23 17 20 19 20 14 17 22 33 34 35 39 32 33 34 26 24 26 25 31 29 31 27 27 18 19 22 21 25
21 20 19 14 17 25 25 24 26 27 27 25 27 27 22 25 25 27 30 27 25 16 9 11 34 41 47 45 37 25 35 33 33 31 28 32 37 34 23 25 20 24 21 24 25
23 22 23 24 24 23 19 18 24 24 28 25 25 22 23 29 27 25 24 32 30 16 9 16 25 37 45 45 47 37 25 28 30 25 24 33 34 32 29 23 21 25 23 23 21
21 22 24 25 23 24 21 20 16 17 21 18 18 24 26 24 25 24 26 32 30 25 18 22 16 35 35 43 43 39 46 44 37 33 34 33 36 35 30 22 20 20 24 24 18
Wind_Direction
297 290 288 289 294 299 300 301 305 297 296 284 267 259 253 250 251 248 237 233 245 249 247 249 249 270 274 288 235 143 229 143 240 220 206 170 143 133 134 127 149 158 176 177 166
311 304 295 289 289 296 302 300 302 301 295 295 283 271 260 256 251 249 242 228 225 235 234 232 251 257 263 263 231 220 237 282 316 243 198 178 169 148 141 121 140 161 161 184 175
303 310 309 299 292 291 296 301 299 303 293 293 292 284 273 264 261 254 236 222 218 225 227 225 242 248 253 248 234 245 268 297 291 267 202 190 179 190 155 144 118 147 125 153 163
299 301 306 311 303 295 293 295 298 300 301 290 293 291 283 271 280 242 214 208 206 215 217 222 230 239 239 244 239 249 267 299 264 263 219 218 196 192 173 161 158 144 175 145 150
295 298 304 305 307 305 298 294 295 298 300 299 291 294 287 273 237 225 211 202 200 206 210 211 220 227 238 244 243 251 277 286 241 233 233 225 220 206 186 186 177 166 168 167 157
291 293 295 301 304 303 303 296 293 298 300 302 295 294 290 285 248 228 219 206 200 201 205 208 217 227 241 240 242 255 271 256 220 198 213 209 217 211 209 205 192 189 179 187 184
290 289 290 291 295 298 299 298 294 293 297 299 300 291 289 294 255 227 214 204 197 195 202 209 219 225 230 224 242 255 241 230 205 205 209 207 224 212 214 224 207 196 200 204 195
293 289 288 288 290 293 296 290 297 295 294 296 300 302 293 288 251 229 212 203 192 190 198 207 211 216 225 218 232 204 222 193 201 206 214 212 229 220 211 220 222 205 203 202 204
284 289 291 288 286 289 291 291 292 295 298 297 299 302 311 278 232 218 207 205 195 193 201 203 208 209 214 200 209 187 193 199 196 209 213 217 232 228 221 208 219 210 208 206 207
279 278 282 288 290 291 287 286 289 292 294 300 301 297 305 261 245 215 207 200 205 203 206 202 205 207 207 199 201 191 197 203 205 202 211 218 224 250 221 212 218 213 211 217 216
284 277 275 278 283 289 291 291 290 292 294 296 295 294 287 269 244 210 202 210 213 213 211 203 206 208 209 202 211 210 209 210 210 209 212 220 234 246 255 226 222 219 215 217 219
291 285 278 276 276 281 287 292 296 296 293 288 293 287 282 258 233 212 214 210 210 218 208 209 212 210 212 208 207 210 214 215 215 217 228 225 236 241 243 295 287 236 218 220 223
291 287 279 274 273 274 279 289 292 296 304 315 324 317 297 252 231 213 212 209 211 218 210 213 214 208 207 204 193 198 211 210 228 232 238 234 248 240 227 222 214 204 198 210 209
289 285 284 270 269 271 273 281 290 300 304 320 336 325 336 299 230 208 209 215 219 225 215 221 206 216 207 207 207 191 208 212 232 219 218 224 232 240 233 229 231 211 202 196 197
290 287 281 275 263 265 269 273 279 292 316 309 348 326 322 313 252 216 205 212 217 217 211 211 212 206 210 212 213 224 206 220 229 225 226 216 222 242 247 234 241 241 231 211 201
284 284 279 273 267 262 256 261 249 220 250 260 310 23 5 336 219 235 214 214 224 220 224 228 219 222 219 218 221 226 214 202 204 221 207 244 221 241 238 246 255 251 243 231 212
280 277 277 266 261 252 242 238 212 220 231 218 174 248 7 342 278 203 217 209 213 213 224 222 222 213 225 225 225 228 229 227 172 155 207 253 220 242 259 256 249 261 265 249 231
282 275 272 266 259 242 234 219 223 252 234 243 235 260 304 319 285 195 203 214 218 224 221 221 226 210 210 220 227 230 232 213 185 183 217 221 212 257 259 256 257 257 265 249 239
284 273 266 255 252 238 234 219 228 232 248 255 262 281 282 186 180 214 231 235 231 222 214 221 233 225 216 221 224 223 230 241 241 259 241 223 252 265 252 246 253 254 256 223 219
285 268 258 254 244 238 238 237 238 238 241 249 257 241 225 271 313 314 243 237 241 235 225 226 247 236 222 222 228 233 236 226 212 145 221 233 227 244 245 240 249 238 252 222 216
286 278 265 253 241 236 237 244 247 249 252 254 254 254 262 268 282 286 260 225 209 225 237 233 232 243 224 219 226 228 227 231 234 219 174 200 235 236 230 222 239 244 257 236 218
285 278 258 252 240 239 241 245 249 251 247 239 248 248 259 268 261 257 252 233 224 215 271 238 238 237 238 234 231 234 235 234 226 227 222 237 239 227 255 254 241 253 244 209 211
281 275 263 256 251 245 245 242 241 243 240 238 250 256 248 237 247 258 251 221 222 256 287 269 241 229 235 244 239 221 226 231 236 240 236 227 253 261 240 235 247 249 225 223 200
292 284 259 256 244 240 239 236 233 237 239 228 239 240 241 244 229 255 241 235 236 273 312 247 235 224 227 231 237 238 237 229 230 230 239 250 263 259 246 242 242 241 213 214 203
285 280 265 243 243 239 250 244 241 245 240 242 247 249 252 258 246 243 252 236 239 276 340 241 213 224 236 236 236 242 235 229 232 241 254 261 255 249 245 238 237 218 216 213 212
274 270 267 262 256 253 254 268 259 258 256 258 254 257 242 243 245 259 258 237 237 238 280 335 227 228 233 237 234 237 231 222 231 243 260 253 250 245 249 228 232 223 223 211 217
268 266 266 260 260 262 261 263 245 250 248 248 248 255 242 230 237 241 248 235 246 245 307 298 339 238 245 234 232 234 241 248 246 253 262 253 246 246 235 234 235 230 226 217 229
Height
3161 3159 3158 3157 3155 3153 3152 3151 3149 3148 3147 3146 3146 3147 3148 3148 3149 3151 3152 3160 3161 3162 3165 3168 3170 3172 3173 3174 3175 3174 3175 3174 3174 3175 3176 3177 3177 3176 3178 3178 3179 3180 3182 3183 3183
3159 3157 3155 3154 3152 3151 3149 3148 3147 3145 3144 3143 3143 3142 3142 3142 3143 3144 3150 3150 3154 3157 3162 3166 3168 3170 3171 3173 3173 3173 3174 3173 3173 3174 3176 3176 3177 3178 3179 3179 3180 3181 3181 3184 3185
3156 3155 3153 3152 3150 3148 3147 3145 3144 3143 3141 3141 3140 3139 3138 3138 3138 3140 3143 3145 3149 3154 3159 3163 3165 3168 3169 3171 3172 3172 3172 3173 3174 3174 3176 3177 3177 3179 3179 3181 3181 3182 3183 3184 3185
3152 3151 3150 3149 3148 3146 3144 3142 3140 3139 3138 3137 3136 3136 3135 3135 3137 3135 3136 3140 3144 3149 3154 3159 3162 3165 3168 3169 3171 3171 3170 3172 3173 3174 3175 3176 3178 3179 3181 3182 3183 3184 3185 3185 3187
3150 3148 3147 3146 3144 3143 3142 3140 3138 3136 3135 3134 3133 3132 3132 3131 3132 3130 3131 3135 3140 3144 3151 3157 3159 3162 3165 3168 3170 3168 3169 3171 3172 3173 3174 3176 3178 3180 3181 3182 3184 3184 3185 3187 3188
3147 3145 3143 3142 3141 3140 3138 3137 3135 3134 3132 3130 3129 3128 3129 3128 3127 3127 3129 3132 3137 3142 3148 3154 3157 3161 3164 3166 3168 3167 3167 3169 3172 3173 3173 3174 3177 3179 3180 3182 3184 3185 3186 3187 3188
3144 3143 3141 3138 3136 3135 3134 3133 3131 3131 3130 3127 3126 3124 3123 3126 3123 3125 3126 3129 3133 3139 3146 3151 3155 3158 3161 3165 3166 3165 3166 3167 3170 3171 3172 3175 3177 3176 3179 3182 3183 3184 3186 3187 3188
3139 3137 3137 3135 3134 3132 3131 3128 3127 3126 3126 3124 3122 3121 3118 3121 3121 3123 3124 3127 3130 3136 3141 3145 3150 3153 3158 3162 3163 3163 3164 3166 3169 3170 3173 3175 3173 3174 3176 3178 3182 3183 3185 3187 3188
3134 3133 3132 3131 3129 3128 3127 3124 3123 3122 3121 3120 3119 3117 3115 3115 3117 3118 3121 3125 3128 3133 3137 3141 3146 3150 3154 3158 3160 3161 3161 3165 3167 3169 3170 3172 3172 3173 3173 3175 3178 3181 3183 3185 3187
3128 3128 3128 3126 3125 3124 3122 3120 3118 3118 3117 3116 3114 3116 3115 3114 3114 3115 3118 3120 3124 3129 3133 3137 3141 3144 3148 3152 3154 3156 3159 3163 3164 3166 3168 3169 3170 3172 3173 3173 3175 3178 3180 3183 3184
3122 3122 3122 3121 3121 3120 3119 3115 3116 3114 3112 3112 3111 3107 3109 3112 3111 3113 3115 3117 3120 3123 3126 3131 3134 3133 3143 3150 3155 3156 3158 3159 3163 3166 3168 3166 3170 3172 3172 3172 3172 3173 3176 3178 3181
3116 3116 3117 3115 3116 3115 3113 3111 3110 3107 3102 3107 3104 3099 3100 3103 3104 3107 3111 3114 3115 3118 3122 3127 3124 3137 3144 3149 3152 3154 3155 3157 3163 3166 3169 3169 3169 3171 3171 3171 3171 3172 3173 3175 3178
3110 3110 3111 3110 3112 3111 3109 3109 3106 3102 3096 3096 3093 3092 3092 3092 3093 3100 3104 3108 3111 3115 3118 3121 3127 3135 3139 3144 3147 3150 3152 3156 3160 3164 3166 3168 3168 3167 3168 3169 3170 3170 3171 3173 3174
3104 3104 3105 3106 3108 3106 3106 3105 3104 3101 3096 3091 3090 3088 3088 3084 3084 3095 3098 3105 3108 3111 3117 3119 3125 3129 3134 3139 3144 3146 3149 3155 3158 3160 3160 3162 3161 3161 3162 3164 3164 3167 3167 3169 3171
3100 3098 3099 3100 3101 3101 3103 3102 3101 3102 3100 3088 3087 3086 3085 3086 3086 3089 3095 3099 3101 3107 3112 3113 3118 3121 3126 3132 3139 3144 3149 3151 3154 3156 3156 3157 3161 3155 3157 3158 3158 3159 3162 3166 3169
3095 3092 3094 3094 3096 3095 3097 3099 3099 3103 3093 3085 3084 3083 3082 3081 3084 3088 3091 3096 3101 3104 3107 3112 3117 3120 3123 3130 3136 3141 3144 3148 3150 3149 3152 3151 3153 3148 3150 3150 3152 3155 3158 3161 3165
3089 3088 3087 3089 3091 3091 3092 3094 3099 3091 3085 3083 3081 3081 3080 3080 3081 3084 3088 3091 3094 3099 3101 3108 3111 3115 3120 3125 3129 3132 3137 3140 3144 3147 3147 3144 3148 3142 3143 3145 3147 3151 3154 3157 3160
3082 3081 3081 3081 3082 3086 3086 3089 3085 3080 3079 3077 3078 3078 3079 3078 3077 3082 3085 3088 3092 3095 3099 3102 3106 3107 3112 3117 3123 3126 3131 3133 3142 3144 3139 3139 3137 3133 3140 3140 3144 3147 3150 3155 3156
3073 3074 3074 3073 3075 3078 3080 3076 3071 3076 3077 3074 3075 3075 3076 3076 3078 3080 3082 3085 3088 3091 3095 3097 3098 3103 3108 3113 3119 3121 3123 3131 3133 3133 3135 3134 3132 3132 3135 3137 3139 3143 3145 3148 3151
3063 3067 3066 3066 3068 3070 3070 3063 3066 3071 3073 3071 3071 3073 3072 3072 3075 3077 3077 3079 3083 3087 3091 3094 3095 3099 3106 3111 3112 3114 3121 3125 3124 3131 3134 3128 3127 3127 3131 3133 3134 3137 3138 3141 3145
3055 3057 3058 3058 3059 3060 3056 3056 3061 3066 3067 3070 3067 3068 3069 3070 3070 3072 3073 3076 3078 3082 3086 3090 3092 3095 3097 3096 3101 3107 3109 3115 3119 3119 3121 3126 3121 3124 3127 3129 3131 3132 3133 3135 3139
3047 3050 3049 3050 3052 3048 3048 3052 3057 3057 3059 3061 3062 3062 3063 3066 3064 3065 3065 3069 3074 3077 3079 3082 3085 3086 3088 3093 3097 3100 3103 3108 3110 3113 3114 3115 3115 3119 3122 3125 3127 3128 3128 3131 3135
3039 3040 3040 3042 3042 3042 3042 3044 3046 3049 3052 3053 3055 3056 3059 3059 3060 3057 3060 3065 3070 3071 3072 3075 3073 3078 3082 3087 3088 3087 3092 3098 3102 3105 3104 3108 3109 3115 3118 3120 3122 3123 3125 3128 3132
3035 3034 3032 3033 3034 3035 3033 3036 3040 3042 3043 3045 3046 3049 3051 3052 3054 3051 3053 3059 3063 3065 3063 3060 3063 3065 3068 3073 3080 3082 3086 3091 3095 3096 3098 3097 3103 3109 3111 3114 3116 3118 3121 3124 3128
3028 3027 3026 3027 3027 3028 3028 3028 3031 3035 3036 3038 3039 3042 3045 3046 3046 3045 3047 3051 3056 3058 3056 3052 3050 3058 3061 3068 3075 3077 3079 3083 3085 3088 3090 3095 3097 3102 3105 3108 3110 3114 3116 3119 3122
3021 3020 3020 3020 3022 3021 3023 3024 3024 3027 3028 3031 3033 3036 3037 3036 3039 3040 3043 3046 3047 3052 3050 3054 3051 3054 3053 3061 3067 3070 3072 3075 3080 3082 3085 3089 3089 3096 3100 3102 3105 3108 3111 3114 3117
3013 3012 3012 3013 3015 3016 3017 3018 3019 3020 3022 3025 3029 3026 3028 3031 3032 3034 3036 3039 3042 3046 3048 3050 3049 3050 3048 3053 3058 3060 3062 3068 3073 3077 3080 3080 3084 3089 3092 3096 3100 3103 3107 3110 3112